Flag for Switzerland Weather past 2 weeks in Montreux, Vaud, Switzerland

Now
56 °F

Refreshingly cool.


Feels Like: 54 °F
Forecast: 42 / 56 °F
Wind: 9 mph from Northwest

Location: Aigle

Current Time: May 22, 2015 at 11:41:59 PM

Latest Report: May 22, 2015 at 10:00 PM


Visibility: N/A

Pressure: 30.10 "Hg

Humidity: 52%

Dew point: 39 °F

Location of MontreuxLocation

Historic Weather in Montreux — Graph

°F

Montreux temperature yesterday

Maximum temperature yesterday: 54 °F (at 4:00 PM)
Minimum temperature yesterday: 45 °F (at 2:00 AM)
Average temperature yesterday: 50 °F

Past Weeks' High & Low Weather Summary

 TemperatureHumidityPressure
High80 °F (May 13, 6:00 PM)98% (May 9, 6:00 AM)30.38 "Hg (May 9, 6:00 AM)
Low44 °F (May 16, 2:00 AM)38% (May 11, 6:00 PM)29.73 "Hg (May 18, 7:00 PM)
Average58 °F70%30.09 "Hg
* Reported May 7 10:00 PM — May 22 10:00 PM, Montreux, Weather by CustomWeather, © 2015

Note: Actual official high and low records may vary slightly from our data, if they occured in-between our weather recording intervals... More about our weather records

Advertising

Montreux weather history for previous 24 hours

 ConditionsComfort  
Time TempWeatherWind HumidityBarometerVisibility
10:00 PM
Fri, May 22
56 °FRefreshingly cool.9 mph52%30.10 "HgN/A
9:00 PM57 °FRefreshingly cool.9 mph51%30.09 "HgN/A
8:00 PM59 °FOvercast.7 mph48%30.09 "Hg19 mi
7:00 PM60 °FRefreshingly cool.3 mph49%30.09 "HgN/A
6:00 PM60 °FRefreshingly cool.5 mph46%30.10 "HgN/A
5:00 PM60 °FOvercast.10 mph45%30.11 "Hg16 mi
4:00 PM60 °FRefreshingly cool.12 mph48%30.10 "HgN/A
3:00 PM60 °FRefreshingly cool.9 mph53%30.11 "HgN/A
2:00 PM61 °FOvercast.10 mph49%30.11 "Hg16 mi
1:00 PM61 °FRefreshingly cool.14 mph51%30.13 "HgN/A
12:00 PM59 °FRefreshingly cool.14 mph55%30.14 "HgN/A
11:00 AM56 °FScattered clouds.3 mph66%30.17 "Hg14 mi
10:00 AM53 °FCool.1 mph69%30.19 "HgN/A
9:00 AM49 °FCool.No wind78%30.22 "HgN/A
8:00 AM48 °FScattered clouds.No wind79%30.23 "Hg12 mi
7:00 AM46 °FCool.No wind85%30.24 "HgN/A
6:00 AM46 °FCool.2 mph83%30.23 "HgN/A
5:00 AM48 °FPassing clouds.2 mph75%30.23 "Hg12 mi
4:00 AM49 °FCool.3 mph74%30.24 "HgN/A
3:00 AM50 °FCool.3 mph70%30.24 "HgN/A
2:00 AM52 °FCool.14 mph66%30.23 "HgN/A
1:00 AM52 °FCool.17 mph63%30.24 "HgN/A
12:00 AM52 °FCool.15 mph62%30.24 "HgN/A
Weather by CustomWeather, © 2015

See weather overviewHow to use our weather pages